Retour au catalogue

STARLINK-30999

ActifCommunicationsVLEO
NORAD 58551·PAYLOAD·🇺🇸 United States

Lancé Dec 8, 2023 depuis Vandenberg Space Force Base

Loading…

Prochains Passages (prochaines 24 heures)

TLE

FraisSource: CelesTrak SupGP

Époque: Sep 15, 2026, 02:38 UTC

1 58551C 23192W   26258.11020833 -.00026692  00000+0 -78850-3 0  2587
2 58551  53.1563 250.5499 0001255  97.2319  90.6463 15.34408989    17

Suivez STARLINK-30999 en temps réel avec AllMySat

Download on the App Store